{"data":{"norad_id":60931,"epoch":"2026-09-21T18:52:12.704160Z","epoch_age_seconds":77378,"freshness":"FRESH","line1":"1 60931U 24155H   26264.78625815 -.00001050  00000+0 -38140-5 0  9996","line2":"2 60931  53.1583  94.4133 0000658  91.9742 268.1351 15.69713677119202","mean_motion":15.69713677,"eccentricity":6.58e-5,"inclination_deg":53.1583,"raan_deg":94.4133,"arg_perigee_deg":91.9742,"mean_anomaly_deg":268.1351,"bstar":-3.814e-6,"rev_number":11920,"period_min":91.73647532664,"perigee_km":359.27287753138,"apogee_km":360.15957901622,"semimajor_km":6737.8532282738,"source":"CELESTRAK","updated_at":"2026-09-22T09:00:49.290300Z"}}